Location: Hilton Head Island
(32.2163°N, 80.7526°W)
Time: 22:33:36
(UTC-04:00)

Tiros 1 despin weight - Pass Details

Date: 22 February 2026
Orbit: 556 x 593 km, 48.2° (Epoch: 13 March)

Event Time Altitude Azimuth Distance (km) Brightness Sun altitude
Rises 15:22:59 0° 296° (WNW) 2,743 ? 32.0°
Reaches altitude 10° 15:27:22 10° 339° (NNW) 1,841 ? 31.3°
Maximum altitude 15:28:04 10° 348° (NNW) 1,818 ? 31.2°
Drops below altitude 10° 15:28:45 10° 358° (N) 1,839 ? 31.1°
Sets 15:33:08 0° 41° (NE) 2,731 ? 30.4°
